Tracking 29892 objects as of 21-Nov-2024
HD Live streaming from Space Station
objects crossing your sky now

STARLINK-1213

Track STARLINK-1213 now!
10-day predictions
STARLINK-1213 is classified as:


NORAD ID: 45400
Int'l Code: 2020-019AS
Perigee: 395.8 km
Apogee: 399.4 km
Inclination: 53.1 °
Period: 92.4 minutes
Semi major axis: 6768 km
RCS: Unknown
Launch date: March 18, 2020
Source: United States (US)
Launch site: AIR FORCE EASTERN TEST RANGE (AFETR)
Your satellite tracking list
Your tracking list is empty




NASA's NSSDC Master Catalog

Two Line Element Set (TLE):
1 45400U 20019AS  24325.91668981  .00127650  00000-0  15900-2 0  9997
2 45400  53.0752  24.4072 0002653 183.5246 204.2502 15.59027825  5881
Source of the keplerian elements: AFSPC